Regional Weather Roundup
Issued by NWS Charleston, WV

Home | Current Version | Previous Version | Graphics & Text | Print | Product List | Glossary Off
Versions: 1 2 3 4 5 6 7 8 9 10 11 12 13 14 15 16 17 18 19 20 21 22 23 24 25 26 27

000
ASUS41 KRLX 310610
RWRRLX
West Virginia Regional Weather Roundup
National Weather Service Charleston WV
200 AM EDT SUN JUL 31 2016

Note: "fair" indicates few or no clouds below 12,000 feet with no
significant weather and/or obstructions to visibility.

WVZ003-310700-
Northern Panhandle of West Virginia

CITY           SKY/WX    TMP DP  RH WIND       PRES   REMARKS
WHEELING       FOG       67  64  90 CALM      29.98S VSB 1/4
$$

WVZ009-310700-
Northwest West Virginia

CITY           SKY/WX    TMP DP  RH WIND       PRES   REMARKS
PARKERSBURG      N/A     70  69  97 CALM      30.00S FOG
$$

WVZ006-310700-
Western West Virginia

CITY           SKY/WX    TMP DP  RH WIND       PRES   REMARKS
HUNTINGTON       N/A     71  66  84 SW3       29.99R
$$

WVZ015-310700-
West Central West Virginia

CITY           SKY/WX    TMP DP  RH WIND       PRES   REMARKS
CHARLESTON     MOCLDY    74  69  85 S5        30.00S
$$

WVZ022-031-310700-
North Central West Virginia

CITY           SKY/WX    TMP DP  RH WIND       PRES   REMARKS
CLARKSBURG       N/A     70  68  93 SE3       30.00F
MORGANTOWN       N/A     67  65  93 S3        30.00F FOG
$$

WVZ025-035-042-045-310700-
Southern West Virginia

CITY           SKY/WX    TMP DP  RH WIND       PRES   REMARKS
BECKLEY          N/A     67  63  87 CALM      30.09F
LOGAN            N/A     70  70 100 CALM      30.03F
BLUEFIELD        N/A     69  65  86 W3        30.12F
LEWISBURG        N/A     64  64  99 CALM      30.09S FOG
$$

WVZ047-310700-
Northern Mountains of West Virginia

CITY           SKY/WX    TMP DP  RH WIND       PRES   REMARKS
ELKINS         MOCLDY    66  63  90 CALM      30.06F FOG
$$

WVZ052-310700-
Eastern Panhandle of West Virginia

CITY           SKY/WX    TMP DP  RH WIND       PRES   REMARKS
MARTINSBURG    FOG       70  70 100 CALM      29.95F VSB 1/4
PETERSBURG       N/A     69  68  98 CALM      29.99F
$$




USA.gov is the U.S. government's official web portal to all federal, state and local government web resources and services.